Regional Weather Roundup
Issued by NWS

Home | Current Version | Previous Version | Graphics & Text | Print | Product List | Glossary On
Versions: 1 2 3 4 5 6 7 8 9 10 11 12 13 14 15 16 17 18 19 20 21 22 23 24 25 26 27 28 29 30 31 32 33 34 35 36 37 38 39 40 41 42 43 44 45 46 47 48 49
000
ASUS45 KBOU 162307
RWRCO

WEATHER ROUNDUP FOR COLORADO
NATIONAL WEATHER SERVICE DENVER/BOULDER CO
500 PM MDT TUE SEP 16 2014

NOTE: "FAIR" INDICATES FEW OR NO CLOUDS BELOW 12000 FEET WITH NO
SIGNIFICANT WEATHER AND/OR OBSTRUCTIONS TO VISIBILITY.

COZ001>005-013-030-031-170000-
...NORTHWEST COLORADO...

CITY           SKY/WX    TMP DP  RH WIND       PRES   REMARKS
CRAIG          SUNNY     81  32  17 S5        30.18F
HAYDEN         SUNNY     79  28  15 CALM      30.20F
MEEKER         SUNNY     82  32  16 SW9       30.19F
MOUNT WERNER   NOT AVBL
STEAMBOAT SPGS MOSUNNY   78  33  19 S3        30.23F
WALDEN         PTSUNNY   73  30  20 N8        30.32S
$$

COZ006>008-011-170000-
...WEST CENTRAL VALLEYS...

CITY           SKY/WX    TMP DP  RH WIND       PRES   REMARKS
GRAND JUNCTION MOSUNNY   85  45  24 NW14      30.07F
MONTROSE       SUNNY     85  36  17 N9        30.15F
EAGLE          MOSUNNY   81  36  19 SW8       30.21F
RIFLE          MOSUNNY   81  41  24 NW3       30.13F
DELTA          SUNNY     91  34  13 S8        30.09F
NUCLA          SUNNY     82  37  20 N12G18    30.18F
$$

COZ017>023-064>068-170000-
...SOUTHWEST COLORADO...

CITY           SKY/WX    TMP DP  RH WIND       PRES   REMARKS
DURANGO        PTSUNNY   77  41  27 NW10      30.21F
CORTEZ         PTSUNNY   74  53  48 SE6       30.16F THUNDER
PAGOSA SPRINGS CLOUDY    75  29  18 W10       30.28F
TELLURIDE      NOT AVBL
WOLF CREEK PAS CLOUDY    50  34  53 SW7       30.59F
$$

COZ009-010-012-014-032>034-037-058>063-170000-
...CENTRAL COLORADO...

CITY           SKY/WX    TMP DP  RH WIND       PRES   REMARKS
ASPEN          SUNNY     77  29  17 VRB3        N/A
BUENA VISTA    MOSUNNY   73  28  18 N5        30.28S
COPPER MTN     PTSUNNY   61  23  23 W15G23    30.62F
BERTHOUD PASS  FAIR      46  45  93 NW10      30.67S
COTTONWOOD PAS CLOUDY    73  23  15 W5        30.44F
GUNNISON       MOSUNNY   70  37  30 W3        30.29F
KREMMLING      PTSUNNY   77  25  14 SE3       30.27F
LEADVILLE      MOSUNNY   67  27  22 NW12      30.44F
SALIDA         MOSUNNY   80  29  15 W5        30.31F
SUNLIGHT       MOSUNNY   59  34  38 CALM      30.56F
WILKERSON PASS NOT AVBL
$$

COZ069>075-170000-
...SAN LUIS VALLEY/SANGRE DE CRISTO MOUNTAINS...

CITY           SKY/WX    TMP DP  RH WIND       PRES   REMARKS
ALAMOSA        SUNNY     79  30  16 VRB3      30.25F
LA VETA PASS   NOT AVBL
SAGUACHE       PTSUNNY   75  32  20 SE3       30.27F
$$

COZ035-036-038>040-170000-
...NORTHERN COLORADO FRONT RANGE...

CITY           SKY/WX    TMP DP  RH WIND       PRES   REMARKS
DENVER INTL AP MOSUNNY   85  36  17 NE9       30.11F
DMNS CITY PARK   N/A     85  33  15 NE5G10    30.08F
AURORA         MOSUNNY   84  36  18 E8        30.13F
FRONT RANGE AP NOT AVBL
ERIE MUNI ARPT MOSUNNY   83  34  16 E7        30.08F
BOULDER MUN AP MOSUNNY   86  37  17 E6        30.09F
CENTENNIAL     MOSUNNY   83  33  16 NE8       30.14F
BROOMFIELD     MOSUNNY   84  36  17 E6        30.13S
FORT COLLINS   SUNNY     88  37  16 S8        30.05S
LONGMONT       SUNNY     89  41  18 E5        30.09F
$$

COZ041-046-047-076>085-087-088-170000-
...PIKES PEAK/PALMER DIVIDE AND SOUTHERN FOOTHILLS...

CITY           SKY/WX    TMP DP  RH WIND       PRES   REMARKS
COLO. SPRINGS  PTSUNNY   83  30  14 SE6       30.16F
A. F. ACADEMY  PTSUNNY   79  33  19 E9        30.19R
ELLICOTT       NOT AVBL
FALCON         PTSUNNY   77  33  20 NE10      30.23S
FORT CARSON    MOSUNNY   84  35  17 VRB7      30.13F
LIMON          SUNNY     80  32  17 N7        30.11F
MONUMENT HILL  CLOUDY    77  34  20 NE6       30.23S
TRINIDAD       PTSUNNY   83  36  18 CALM      30.14F
$$

COZ042>045-048>051-090-091-170000-
...NORTHEAST COLORADO...

CITY           SKY/WX    TMP DP  RH WIND       PRES   REMARKS
GREELEY ARPT   SUNNY     88  34  14 NW5       30.05F
AKRON          SUNNY     83  38  20 N14       30.07S
BURLINGTON     SUNNY     88  34  14 N12       30.02F
WRAY           SUNNY     88  40  18 N14G20    29.99F
STERLING       SUNNY     90  41  18 N7        30.01F
HOLYOKE        SUNNY     86  45  23 N12       30.01S
FORT MORGAN    SUNNY     86  30  13 NE13G20   30.05F
$$

COZ086-089-092>099-170000-
...SOUTHEAST COLORADO...

CITY           SKY/WX    TMP DP  RH WIND       PRES   REMARKS
PUEBLO         MOSUNNY   90  36  14 SE18      30.04F
LA JUNTA       SUNNY     90  38  16 E10       30.02F
LAMAR          SUNNY     90  46  21 SE9       29.98F
SPRINGFIELD      N/A     84  56  38 S16       30.05F
$$



USA.gov is the U.S. government's official web portal to all federal, state and local government web resources and services.